STARLINK-1805, 46705

Orbit data source: Space-Track

STARLINK-1805, 46705 is a payload satellite owned by SpaceX/Seattle (US) in LEO that was launched on Sun, 18 Oct 2020 UTC via an FALCON 9 launch vehicle from the Air Force Eastern Test Range (AFETR). Payload-class satellites include a variety of spacecraft equipped with specific instruments for various scientific and technological missions. These include communications satellites like Starlink; space stations such as the ISS; scientific satellites like the Hubble; Earth observation satellites from companies like Planet Labs, Umbra, and HawkEye 360; GPS; miniature CubeSats for education and research; and military/defense satellites.

Loading next visibility...
Identifier
46705, 2020-073AM
Orbit
LEO
Country
Flag of USUS
Related business
Manufacturer
SpaceX/Seattle
Mission
Operational Commercial Communications
Bus & Motor
STARLINK, Unknown motor
Mass
260 kg wet, ~248 kg dry
Launch date (UTC)
2020-10-18 (5 years ago)
Launch vehicle
FALCON 9
Launch site
Air Force Eastern Test Range (AFETR)
Object type
Payload
Rocket body
Debris
Shape & HBR
Box + 1 Pan, 10.1 m
Radar Cross Section
13.562 m², Large (>1 m²)

Expand to show TLE details & history
Last TLE update: 8 hours ago

TLE from 8 hours ago
0 STARLINK-1805
1 46705U 20073AM  26036.83335647  .00168580  00000-0  34491-2 0  9991
2 46705  53.0543  36.0984 0001588  92.8555 355.7452 15.45022154  5724
Epoch: 2026-02-05T20:00Z
TLE epoch observation values (Epoch: 2026-02-05T20:00:01.999Z)
Latitude
53.18481°
Longitude
47.77789°
Altitude
436.761 km
Speed
7.657 km/s
True Right ascension
08h 15m 03s
True Declination
53° 00' 43"
Sunlit
Object was in full shadow at epoch
Visualization orbit readout
Latitude
Unknown
Longitude
Unknown
Altitude
Unknown
Speed
Unknown
Apparent Right ascension
Unknown
Apparent Declination
Unknown
Sunlit
N/A
Visualization observer readout
Local Sidereal Time
06:18:21
Azimuth
Unknown
Elevation
Unknown
Doppler factor
Unknown
Orbital elements
Apogee altitude
432.67 km
Perigee altitude
430.507 km
Semi-major axis
6,809.725 km
Eccentricity
0.00016
Inclination
53.0543°
RAAN
36.0984°
Arg. of periapsis
92.8555°
True anomaly
355.74385°
Mean anomaly
355.7452°
Eccentric anomaly
355.74452°
Mean motion
3.86232 °/min
Orbital period
93.21 mins
BSTAR
0.0034491
Loading maneuver chart data...
Computing Atmospheric mass density...
Loading historical data...
Loading historical data...
Loading historical data...
Loading historical data...
Loading historical data...
Loading historical data...
Loading historical data...

Documentation

Showing up to 5 results
|